Location: Rodson Ranch
(38.7188°N, 119.3202°W)
Time: 17:26:43
(UTC+00:00)

DELTA 2 R/B (1) - Pass Details

Date: 29 October 2020
Orbit: 790 x 802 km, 39.6° (Epoch: 22 November)

Event Time Altitude Azimuth Distance (km) Brightness Sun altitude
Exits shadow 12:19:27 33° 200° (SSW) 1,312 4.5 -24.3°
Drops below altitude 10° 12:23:56 10° 147° (SSE) 2,363 6.4 -23.5°
Sets 12:26:37 0° 139° (SE) 3,292 7.4 -22.9°
